EW7164 Weather Reports


time (UTC)temp
C
wind
direction
speed
KPH
gust
KPH
rain 1hr
cm
rain 24hr
cm
rain mn
cm
humidity
%
barometer
mb
20260904083415 15 310 6.4 9.7 0.00 3.17 0.00 96 1010.0
20260904082417 15 278 8.0 9.7 0.00 3.17 0.00 96 1010.0
20260904081415 15 303 8.0 11.3 0.00 3.17 0.00 97 1010.0
20260904080416 15 279 9.7 12.9 0.00 3.17 0.00 97 1010.1
20260904075436 15 292 9.7 14.5 0.00 3.17 0.00 96 1009.9
20260904074437 15 283 8.0 11.3 0.00 3.17 0.00 97 1010.2
20260904073534 15 290 6.4 11.3 0.00 3.17 0.00 97 1010.4
20260904073436 15 288 11.3 14.5 0.00 3.17 0.00 96 1010.4
20260904071436 15 270 6.4 8.0 0.00 3.17 0.00 97 1010.2
20260904070437 15 292 4.8 6.4 0.00 3.17 0.00 96 1010.1
20260904065536 15 294 9.7 11.3 0.00 3.17 0.00 97 1010.4
20260904064536 15 292 4.8 6.4 0.00 3.17 0.00 97 1010.4
20260904063536 15 272 6.4 6.4 0.00 3.17 0.00 97 1010.7
20260904063434 15 273 8.0 11.3 0.00 3.17 0.00 96 1010.7
20260904062436 15 293 8.0 9.7 0.00 3.17 0.00 97 1010.8
20260904062337 15 271 6.4 11.3 0.00 3.17 0.00 97 1010.8
20260904061435 15 270 4.8 8.0 0.00 3.17 0.00 97 1010.9
20260904060438 15 292 8.0 11.3 0.00 3.17 0.00 97 1011.0
20260904055437 15 315 6.4 6.4 0.00 3.17 0.00 96 1010.7
20260904054437 15 292 6.4 6.4 0.00 3.17 0.00 96 1011.0
20260904053534 15 292 8.0 9.7 0.00 3.17 0.00 97 1011.0
20260904051536 15 315 8.0 9.7 0.00 3.17 0.00 97 1011.2
20260904050635 15 315 8.0 11.3 0.00 3.17 0.00 96 1011.4
20260904045636 15 315 6.4 9.7 0.00 3.17 0.00 97 1011.5
20260904043634 15 315 6.4 8.0 0.00 3.17 0.00 97 1011.8
20260904042635 15 315 4.8 6.4 0.00 3.17 0.00 96 1012.0
20260904041635 15 315 6.4 9.7 0.00 3.17 0.00 97 1011.9
20260904040637 15 315 3.2 8.0 0.00 3.17 0.00 97 1011.8
20260904035645 15 319 3.2 8.0 0.00 3.17 3.17 97 1011.9
20260904033647 15 360 4.8 6.4 0.00 3.17 3.17 95 1012.3
20260904032745 15 315 3.2 4.8 0.00 3.17 3.17 96 1012.5
20260904030846 15 90 0.0 0.0 0.03 3.17 3.17 96 1012.4
20260904024846 15 90 0.0 1.6 0.03 3.17 3.17 96 1012.2
20260904023944 15 90 3.2 4.8 0.03 3.17 3.17 96 1012.3
20260904022946 15 90 0.0 0.0 0.05 3.17 3.17 96 1012.3
20260904022046 15 90 0.0 1.6 0.03 3.15 3.15 96 1012.3
20260904020146 15 90 4.8 4.8 0.03 3.15 3.15 95 1012.7
20260904015244 15 102 4.8 6.4 0.03 3.15 3.15 95 1012.9
20260904014247 15 96 6.4 8.0 0.05 3.15 3.15 96 1013.1
20260904012347 15 94 8.0 11.3 0.03 3.12 3.12 96 1013.1
20260904011345 15 90 8.0 9.7 0.03 3.12 3.12 95 1013.0
20260904010345 15 90 6.4 9.7 0.05 3.12 3.12 96 1013.3
20260904010244 15 90 6.4 9.7 0.05 3.12 3.12 96 1013.2
20260904005247 15 90 6.4 9.7 0.05 3.12 3.12 95 1013.2
20260904004249 15 90 6.4 8.0 0.05 3.10 3.10 96 1013.3
20260904003345 15 100 6.4 11.3 0.05 3.10 3.10 96 1013.4
20260904002347 15 101 4.8 9.7 0.08 3.10 3.10 96 1013.3
20260903235347 15 132 3.2 4.8 0.08 3.07 3.07 96 1013.3
20260903234345 15 117 3.2 4.8 0.08 3.05 3.05 96 1013.4
20260903233345 15 90 3.2 6.4 0.08 3.05 3.05 96 1013.6
20260903232346 15 135 1.6 4.8 0.08 3.02 3.02 96 1013.6
20260903231347 15 130 6.4 9.7 0.08 3.02 3.02 95 1013.6
20260903231245 15 99 4.8 8.0 0.08 3.02 3.02 95 1013.6
20260903225345 15 141 4.8 11.3 0.10 3.00 3.00 95 1013.9
20260903222348 16 117 4.8 9.7 0.10 2.92 2.92 94 1014.0
20260903222247 16 135 0.0 4.8 0.10 2.92 2.92 95 1014.0
20260903221246 16 151 4.8 14.5 0.13 2.92 2.92 95 1014.0
20260903220245 16 162 6.4 12.9 0.10 2.92 2.92 95 1014.0
20260903220146 16 151 4.8 8.0 0.10 2.92 2.92 95 1013.9
20260903214147 16 177 6.4 12.9 0.08 2.87 2.87 95 1014.2
20260903212247 16 173 8.0 17.7 0.10 2.84 2.84 94 1014.2
20260903211245 16 189 6.4 11.3 0.10 2.82 2.82 95 1014.3
20260903210248 16 182 1.6 8.0 0.10 2.82 2.82 94 1014.4
20260903205346 16 132 4.8 11.3 0.08 2.79 2.79 95 1014.5
20260903204345 16 138 6.4 16.1 0.10 2.79 2.79 95 1014.6
20260903203345 16 172 9.7 17.7 0.08 2.77 2.77 95 1014.7
20260903195448 16 109 3.2 8.0 0.10 2.72 2.72 95 1015.0
20260903194445 16 124 6.4 9.7 0.10 2.69 2.69 94 1015.1
20260903193448 16 127 3.2 6.4 0.13 2.69 2.69 95 1015.5
20260903192449 16 93 4.8 8.0 0.13 2.67 2.67 94 1015.5
20260903191447 16 112 1.6 4.8 0.10 2.64 2.64 94 1015.7
20260903190446 16 101 4.8 9.7 0.10 2.64 2.64 94 1015.8
20260903185346 16 131 3.2 6.4 0.08 2.62 2.59 93 1015.8
20260903184346 16 130 3.2 3.2 0.05 2.59 2.59 93 1015.9
20260903183445 16 135 4.8 9.7 0.05 2.57 2.57 93 1016.1
20260903183346 16 119 6.4 8.0 0.05 2.57 2.54 93 1016.0
20260903180545 17 176 3.2 8.0 0.03 2.54 2.54 93 1016.2
20260903175546 17 138 4.8 8.0 0.03 2.54 2.54 93 1016.3
20260903174545 17 187 3.2 4.8 0.03 2.54 2.54 93 1016.4
20260903173644 17 184 4.8 6.4 0.00 2.51 2.51 92 1016.5
20260903172646 17 225 1.6 4.8 0.03 2.51 2.51 94 1016.7
20260903171744 17 229 0.0 4.8 0.05 2.51 2.51 94 1016.9
20260903171648 17 225 1.6 3.2 0.05 2.51 2.51 93 1016.9
20260903170744 16 138 0.0 4.8 0.05 2.51 2.51 95 1016.9
20260903165647 16 92 4.8 6.4 0.08 2.51 2.51 94 1016.9
20260903164646 16 93 3.2 6.4 0.10 2.51 2.51 95 1017.0
20260903163743 16 32 1.6 4.8 0.15 2.51 2.51 95 1017.2
20260903162747 16 317 0.0 1.6 0.13 2.49 2.49 93 1017.3
20260903161746 16 276 9.7 12.9 0.20 2.46 2.46 95 1017.3
20260903160744 16 245 6.4 8.0 0.25 2.46 2.46 95 1017.4
20260903154746 16 189 6.4 11.3 0.43 2.41 2.41 96 1017.6
20260903153748 16 192 11.3 16.1 0.46 2.36 2.36 96 1017.6
20260903151745 16 200 8.0 22.5 0.53 2.26 2.26 94 1017.8
20260903150745 16 139 6.4 12.9 0.56 2.21 2.21 95 1017.9
20260903145745 16 216 4.8 9.7 0.71 2.11 2.08 95 1017.8
20260903144844 16 157 12.9 19.3 0.79 1.98 1.98 96 1017.6
20260903142947 16 157 12.9 25.7 0.97 1.80 1.80 96 1017.7
20260903141945 15 159 8.0 17.7 1.07 1.75 1.75 96 1017.7
20260903140946 15 115 9.7 17.7 1.09 1.68 1.65 96 1017.7
20260903140044 15 146 9.7 14.5 0.91 1.50 1.45 96 1018.0
20260903135045 15 95 4.8 8.0 0.69 1.22 1.19 96 1018.4
20260903134047 15 146 1.6 4.8 0.51 0.99 0.97 96 1018.5
20260903133047 15 90 4.8 6.4 0.46 0.86 0.84 96 1018.5
20260903132944 15 122 1.6 4.8 0.43 0.84 0.84 96 1018.5
20260903130947 15 149 6.4 11.3 0.41 0.58 0.58 96 1018.3
20260903130846 15 108 3.2 12.9 0.43 0.58 0.58 96 1018.4
20260903124946 15 127 8.0 22.5 0.43 0.53 0.51 96 1018.1
20260903123945 16 122 6.4 12.9 0.41 0.48 0.48 96 1018.1
20260903122946 16 168 4.8 9.7 0.33 0.41 0.38 96 1018.5
20260903122846 16 102 3.2 9.7 0.30 0.38 0.38 96 1018.5
20260903121846 16 157 8.0 16.1 0.20 0.25 0.23 96 1018.6
20260903120945 16 200 4.8 6.4 0.13 0.18 0.15 95 1018.9
20260903114946 16 168 9.7 19.3 0.08 0.10 0.10 96 1018.9
20260903114044 15 175 4.8 12.9 0.05 0.08 0.08 96 1019.0
20260903113945 15 169 8.0 17.7 0.05 0.08 0.08 96 1019.0
20260903112947 15 184 6.4 11.3 0.08 0.08 0.08 96 1019.0
20260903112045 15 164 6.4 11.3 0.05 0.05 0.05 96 1019.1
20260903111046 15 148 11.3 22.5 0.05 0.05 0.05 96 1019.0
20260903110045 15 147 6.4 12.9 0.03 0.03 0.03 96 1019.0
20260903105143 15 155 8.0 16.1 0.03 0.03 0.03 96 1019.1
20260903104145 15 150 11.3 20.9 0.03 0.03 0.03 96 1019.1
20260903102244 15 180 3.2 6.4 0.00 0.00 0.00 96 1019.1
20260903101245 15 146 6.4 11.3 0.00 0.00 0.00 95 1019.3
20260903100245 15 166 4.8 9.7 0.00 0.00 0.00 96 1019.2
20260903095246 15 176 3.2 6.4 0.00 0.00 0.00 96 1019.3
20260903094344 15 201 4.8 12.9 0.00 0.00 0.00 96 1019.2
20260903091346 15 190 6.4 11.3 0.00 0.00 0.00 96 1019.3
20260903091245 15 205 9.7 14.5 0.00 0.00 0.00 96 1019.3
20260903090245 15 197 4.8 11.3 0.00 0.00 0.00 96 1019.5
20260903085247 15 186 6.4 11.3 0.00 0.00 0.00 96 1019.4
20260903084345 15 148 3.2 6.4 0.00 0.00 0.00 96 1019.6